Volver al catálogo

ONEWEB-0350

ActivoComunicacionesPO
NORAD 49214·PAYLOAD·🇬🇧 United Kingdom

Lanzado Sep 14, 2021 desde Baikonur Cosmodrome

Loading…

Próximos Pases (próximas 24 horas)

TLE

ActualizadoSource: CelesTrak SupGP

Época: Sep 14, 2026, 17:40 UTC

1 49214C 21083AE  26257.73664769 -.00001974  00000+0 -54104-2 0  2579
2 49214  87.8925 302.4132 0002840  83.1711  19.2328 13.13475566    18

Sigue ONEWEB-0350 en tiempo real con AllMySat

Download on the App Store